Regional Weather Roundup
Issued by NWS San Angelo, TX

Home | Current Version | Previous Version | Text Only | Print | Product List | Glossary On
Versions: 1 2 3 4 5 6 7 8 9 10 11 12 13 14 15 16 17 18 19 20 21 22 23 24 25 26 27 28 29 30 31 32 33 34 35 36 37 38 39 40 41 42 43 44 45 46 47 48 49 50
000
ASUS44 KSJT 010602
RWRSJT
WEST CENTRAL TEXAS REGIONAL WEATHER ROUNDUP
NATIONAL WEATHER SERVICE SAN ANGELO TX
1200 AM CST SUN FEB 01 2015

NOTE: "FAIR" INDICATES FEW OR NO CLOUDS BELOW 12,000 FEET WITH NO
SIGNIFICANT WEATHER AND/OR OBSTRUCTIONS TO VISIBILITY.

TXZ049-054-064>066-071>073-076>078-098-099-113-114-127-128-139-140-
154-155-168>170-010700
...LOCATIONS ACROSS WEST CENTRAL TEXAS...

CITY           SKY/WX    TMP DP  RH WIND       PRES   REMARKS
SAN ANGELO     CLOUDY    56  54  93 SW10      29.92S
ABILENE        CLOUDY    54  52  93 SW7       29.88S
DYESS AFB      CLOUDY    54  54 100 S8        29.87S
JUNCTION       CLOUDY    58  55  90 SW3       29.90S
SWEETWATER     NOT AVBL
BROWNWOOD      CLOUDY    54  54 100 SE6       29.90F FOG
COLEMAN        NOT AVBL
SONORA         NOT AVBL
OZONA          NOT AVBL
BRADY          NOT AVBL
$$

TEXAS PANHANDLE/OKLAHOMA PANHANDLE

CITY           SKY/WX    TMP DP  RH WIND       PRES   REMARKS
AMARILLO       CLOUDY    42  40  92 SW8       29.84R WCI  37
BORGER         CLOUDY    43  40  89 VRB3      29.83R
CANADIAN       NOT AVBL
DALHART        CLOUDY    40  35  83 N12       29.85S WCI  33
DUMAS          NOT AVBL
GUYMON         NOT AVBL
HEREFORD       NOT AVBL
PAMPA          NOT AVBL
PERRYTON       NOT AVBL
$$

SOUTHERN PANHANDLE/SOUTH PLAINS/ROLLING PLAINS

CITY           SKY/WX    TMP DP  RH WIND       PRES   REMARKS
LUBBOCK        CLOUDY    46  44  93 SW15      29.84S WCI  40
SNYDER         NOT AVBL
CHILDRESS      FOG       42  42 100 S6        29.84F VSB 1/2 WCI  38
SEMINOLE       NOT AVBL
$$

PERMIAN BASIN

CITY           SKY/WX    TMP DP  RH WIND       PRES   REMARKS
MIDLAND        FOG       49  48  97 W3        29.88R VSB 1/4
ODESSA         FOG       49  47  93 SW6       29.89R VSB 1/4
WINK           CLOUDY    46  43  89 SW6       29.89R FOG
$$

FAR WEST/SOUTHWEST MOUNTAINS/TRANS PECOS

CITY           SKY/WX    TMP DP  RH WIND       PRES   REMARKS
ALPINE         NOT AVBL
DRYDEN           N/A     52  50  93 CALM      29.90R
EL PASO        MOCLDY    53  42  66 W8        29.92S
FORT STOCKTON  CLEAR     49  46  90 S10       29.90R
GUADALUPE PASS PTCLDY    42  40  92 W21G29    29.94S WCI  33
MARFA          CLEAR     36  36 100 CALM      29.97S
PECOS          NOT AVBL
$$

DALLAS/FORT WORTH METROPLEX

CITY           SKY/WX    TMP DP  RH WIND       PRES   REMARKS
DFW AIRPORT    LGT RAIN  53  52  96 S14       29.87F FOG
FTW MEACHAM    LGT RAIN  54  53  97 SW7       29.88S FOG
DAL-EXECUTIVE  RAIN      56  52  86 S13       29.87F FOG
GRAND PRAIRIE  CLOUDY    54  54 100 S8        29.89F
ADDISON        NOT AVBL
MESQUITE       CLOUDY    53  51  93 S12       29.89F
LANCASTER      LGT RAIN  54  51  91 S10       29.90F
$$

NORTH CENTRAL TEXAS

CITY           SKY/WX    TMP DP  RH WIND       PRES   REMARKS
SHRMAN/DENISON RAIN      50  50  99 S8        29.88S
GAINESVILLE    NOT AVBL
BRIDGEPORT     CLOUDY    51  51 100 CALM      29.90S FOG
DENTON         LGT RAIN  51  51 100 W7        29.88F FOG
WAXAHACHIE     DRIZZLE   54  54 100 S14       29.90F
GRANBURY       NOT AVBL
$$

WESTERN NORTH TEXAS

CITY           SKY/WX    TMP DP  RH WIND       PRES   REMARKS
WICHITA FALLS  CLOUDY    48  47  96 S10       29.85F FOG
VERNON         NOT AVBL
BRECKENRIDGE   NOT AVBL
COMANCHE       CLOUDY    54  54 100 SW7       29.90S FOG
$$

CENTRAL AND SOUTH CENTRAL TEXAS

CITY           SKY/WX    TMP DP  RH WIND       PRES   REMARKS
AUSTIN/BERGSTM CLOUDY    62  60  93 S9        29.92F
WACO           CLOUDY    58  56  93 S14G24    29.90F FOG
HILLSBORO      NOT AVBL
TEMPLE         CLOUDY    59  55  88 S16       29.89F
KILLEEN-GRAY   CLOUDY    60  59  97 S10       29.90S
FORT HOOD      CLOUDY    61  60  96 S12       29.89F
GEORGETOWN     MOCLDY    63  59  88 S12G18    29.90F
LAGO VISTA     CLOUDY    61  60  94 S9        29.93S
SAN MARCOS     CLOUDY    63  59  88 S9        29.93F
NEW BRAUNFELS  CLOUDY    62  60  93 S8        29.91F
RANDOLPH AFB   CLOUDY    61  61 100 SE7       29.93S
SAN ANTONIO    CLOUDY    62  60  93 SE7       29.93S
STINSON        CLOUDY    61  59  93 E3        29.91F
PLEASANTON     NOT AVBL
LA GRANGE      NOT AVBL
GIDDINGS       NOT AVBL
$$

EAST TEXAS

CITY           SKY/WX    TMP DP  RH WIND       PRES   REMARKS
PARIS          CLOUDY    48  43  81 SE15      29.90F
CLARKSVILLE    NOT AVBL
TYLER          CLOUDY    55  50  83 S13G22    29.94F
LONGVIEW       LGT RAIN  56  48  74 S7        29.95F
PALESTINE      CLOUDY    57  55  91 S8        29.97F
NACOGDOCHES    CLOUDY    55  50  82 SE13G21   29.96F
$$

TEXAS HILL COUNTRY AND EDWARDS PLATEAU

CITY           SKY/WX    TMP DP  RH WIND       PRES   REMARKS
LLANO          NOT AVBL
HORSESHOE BAY  CLOUDY   N/A N/A N/A S7        29.91F
KERRVILLE      NOT AVBL
FREDERICKSBRG  NOT AVBL
ROCKSPRINGS    NOT AVBL
HONDO          FOG       57  56  96 E6        29.93F VSB 1/2
UVALDE         NOT AVBL
DEL RIO        CLOUDY    58  56  93 W6        29.94R FOG
$$

SOUTHEAST TEXAS

CITY           SKY/WX    TMP DP  RH WIND       PRES   REMARKS
COLLEGE STN    CLOUDY    60  58  92 S9        29.96R
CALDWELL       NOT AVBL
CROCKETT       NOT AVBL
BRENHAM        NOT AVBL
HUNTSVILLE     CLOUDY    59  57  93 S7        29.96R
CONROE         CLOUDY    58  56  93 SE12      29.97F
HOUSTON BUSH   CLOUDY    61  59  93 SE12      29.95F
HOUSTON HOBBY  CLOUDY    62  61  96 SE12      29.93F
PERLAND        CLOUDY    64  62  93 SE15      29.96F
WHARTON        NOT AVBL
$$

THE UPPER TEXAS COAST

CITY           SKY/WX    TMP DP  RH WIND       PRES   REMARKS
ORANGE         CLOUDY    60  55  86 E9G20     30.04F
PORT ARTHUR    CLOUDY    60  56  86 SE18      30.01F
GALVESTON      CLOUDY    61  61 100 SE14      29.99F
ANGLETON       CLOUDY    64  63  96 SE15      29.94F
BAY CITY       CLOUDY    67  66  97 S14G23    29.93F
$$

TEXAS COASTAL BEND, RIO GRANDE PLAINS DEEP SOUTH TEXAS

CITY           SKY/WX    TMP DP  RH WIND       PRES   REMARKS
VICTORIA       MOCLDY    64  63  96 S7        29.94S
BEEVILLE       FAIR      64  63  97 S7        29.93S
ROCKPORT       CLOUDY    67  61  81 SE9G17    29.91R
PORT ARANSAS   NOT AVBL
PORT LAVACA    CLOUDY    65  64  94 S10       29.94S
CORPUS CHRISTI CLOUDY    66  61  84 S16       29.91R
KINGSVILLE NAS CLOUDY    67  64  90 S14       29.91S
COTULLA        CLEAR     59  57  93 E5        29.90S
LAREDO         PTCLDY    62  59  90 S7        29.91F
BROWNSVILLE    CLOUDY    66  62  87 SE10      29.98F
PORT ISABEL    LGT RAIN  66  63  90 SE13      29.96F
HEBBRONVILLE   NOT AVBL
MCALLEN        CLOUDY    66  59  78 S12       29.94R
WESLACO        NOT AVBL
FALFURRIAS     CLOUDY    67  61  81 S13       29.92S
EDINBURG       NOT AVBL
$$



USA.gov is the U.S. government's official web portal to all federal, state and local government web resources and services.